[[{"header":{"parameterUnit":"m.s-1","parameterCategory":1,"la1":30.2991,"la2":30.254,"lo1":-89.0895,"lo2":-89.0444,"dy":0.0017,"dx":0.0017,"nx":28,"ny":28,"refTime":"2025-05-26T09:00:00:Z","depth":0,"parameterNumber":2,"parameterNumberName":"U-component_of_WINDS"},"data":[0,0,0,0,0,0,0,0,0,0,0,0,0,0,0,0,0,0,0,0,0,0,0,0,0,0,0,0,0,0,0,0,0,0,0,0,0,0,0,0,0,0,0,0,0,0,0,0,0,0,0,0,0,0,0,0,0,0,-0.4502,-0.4501,0,-0.4369,-0.4368,-0.4366,-0.4263,-0.4263,-0.4262,-0.4261,-0.4123,-0.412,-0.4118,0,0,0,0,0,0,0,0,0,0,0,0,0,-0.4666,-0.4664,-0.4502,-0.4501,-0.4499,-0.4369,-0.4368,-0.4366,-0.4264,-0.4262,-0.4261,-0.426,-0.4124,-0.4121,-0.4117,0,0,0,0,0,0,0,0,0,0,0,0,0,-0.457,-0.4663,-0.4503,-0.4432,-0.4425,-0.437,-0.4367,-0.4365,-0.4264,-0.4262,-0.4261,-0.426,-0.4125,-0.4121,-0.4117,-0.412,0,0,-0.4104,-0.4102,0,0,0,0,0,0,0,0,-0.4576,-0.4564,-0.4444,-0.4437,-0.4429,-0.4331,-0.4375,-0.4283,-0.4264,-0.4325,-0.4261,-0.4259,-0.4193,-0.4184,-0.4162,-0.4114,-0.4108,-0.4104,-0.4101,-0.41,-0.4098,0,0,0,0,0,0,0,-0.4583,-0.457,-0.4449,-0.4443,-0.4433,-0.4407,-0.4392,-0.4357,-0.4269,-0.432,-0.4312,-0.4298,-0.4189,-0.4166,-0.4158,-0.4106,-0.4104,-0.41,-0.4098,-0.4096,-0.4052,-0.4053,0,0,0,0,0,0,-0.46,-0.4576,-0.4454,-0.4446,-0.45,-0.4405,-0.4388,-0.4364,-0.4269,-0.4253,-0.4299,-0.4293,-0.4174,-0.4163,-0.4153,-0.4148,-0.41,-0.4096,-0.4093,-0.4051,-0.4053,-0.4054,0,0,0,0,0,0,-0.4604,-0.4591,-0.4459,-0.4508,-0.449,-0.4404,-0.4378,-0.4362,-0.4339,-0.4253,-0.4237,-0.4292,-0.4172,-0.4158,-0.4129,-0.4142,-0.4094,-0.409,-0.4049,-0.4051,-0.4053,-0.4142,0,0,0,0,0,0,-0.461,-0.4593,-0.4593,-0.4509,-0.4488,-0.4438,-0.4379,-0.4361,-0.4332,-0.4324,-0.4242,-0.4228,-0.417,-0.4136,-0.4125,-0.4136,-0.4087,-0.4048,-0.405,-0.4053,-0.4137,-0.4146,-0.4154,0,0,0,0,0,-0.4616,-0.4624,-0.4594,-0.458,-0.4487,-0.4439,-0.4427,-0.4361,-0.4334,-0.4334,-0.4278,-0.423,-0.4143,-0.4133,-0.412,-0.413,-0.4047,-0.405,-0.4052,-0.4133,-0.4145,-0.4154,0,0,0,0,0,0,-0.4712,-0.4612,-0.4577,-0.4559,-0.4508,-0.4422,-0.442,-0.4375,-0.4331,-0.4325,-0.4244,-0.4227,-0.4205,-0.4165,-0.4156,-0.4128,-0.4089,-0.4089,-0.4154,-0.4164,-0.4173,-0.4182,-0.4083,0,0,0,0,0,-0.4731,-0.4701,-0.4615,-0.4607,-0.4583,-0.4506,-0.4483,-0.4437,-0.4381,-0.4359,-0.4302,-0.4249,-0.4209,-0.4185,-0.4144,-0.4132,-0.4111,-0.4132,-0.4141,-0.4148,-0.4149,-0.4137,-0.4144,-0.4064,-0.4064,-0.4064,0,0,-0.477,-0.4711,-0.4697,-0.4624,-0.458,-0.455,-0.4489,-0.446,-0.4436,-0.4354,-0.4322,-0.4279,-0.4215,-0.4193,-0.4181,-0.4159,-0.4167,-0.4152,-0.4159,-0.4155,-0.4141,-0.4149,-0.4155,-0.4066,-0.4065,-0.4065,0,0,-0.4824,-0.4778,-0.4765,-0.4722,-0.4655,-0.4604,-0.4601,-0.4521,-0.4489,-0.4456,-0.4393,-0.4364,-0.4298,-0.4255,-0.4224,-0.4262,-0.4215,-0.4252,-0.4296,-0.4285,-0.4291,-0.4297,-0.4308,-0.4313,-0.4253,-0.4253,-0.4253,0,-0.4881,-0.4833,-0.4764,-0.4738,-0.4707,-0.4632,-0.4618,-0.4579,-0.4503,-0.4483,-0.446,-0.4375,-0.4326,-0.4292,-0.4302,-0.428,-0.4273,-0.4259,-0.4296,-0.4301,-0.4305,-0.4314,-0.4319,-0.4258,-0.4257,-0.4257,-0.4256,0,-0.4905,-0.4873,-0.487,-0.4798,-0.4767,-0.4747,-0.4674,-0.4651,-0.4608,-0.4559,-0.4525,-0.4465,-0.441,-0.4399,-0.4356,-0.4359,-0.4347,-0.4312,-0.427,-0.4318,-0.4326,-0.4329,-0.4264,-0.4263,-0.4261,-0.426,0,0,-0.5015,-0.4904,-0.4904,-0.487,-0.4791,-0.4764,-0.4741,-0.4687,-0.4668,-0.4619,-0.4595,-0.4542,-0.4508,-0.4473,-0.4425,-0.4417,-0.4448,-0.4381,-0.4379,-0.4394,-0.4444,-0.447,-0.4476,-0.4418,-0.4418,-0.4419,-0.4449,0,-0.5055,-0.5008,-0.4945,-0.492,-0.4888,-0.4817,-0.4796,-0.4745,-0.4699,-0.4665,-0.4614,-0.4576,-0.4535,-0.4514,-0.4502,-0.4447,-0.4457,-0.4444,-0.4394,-0.4393,-0.441,-0.448,-0.4507,-0.4539,-0.4452,-0.4452,-0.4453,0,-0.5096,-0.5049,-0.502,-0.4943,-0.4927,-0.491,-0.4854,-0.4824,-0.4764,-0.4731,-0.4692,-0.464,-0.4611,-0.4576,-0.4533,-0.4526,-0.4502,-0.4472,-0.4472,-0.4462,-0.4424,-0.447,-0.4547,-0.4551,-0.4457,-0.4457,-0.4457,0,-0.5176,-0.5106,-0.5079,-0.5053,-0.4962,-0.4951,-0.4913,-0.4852,-0.4823,-0.4775,-0.4755,-0.4705,-0.4677,-0.4639,-0.4574,-0.4555,-0.4538,-0.4498,-0.4508,-0.451,-0.4506,-0.4506,-0.4578,-0.4495,-0.4495,-0.4495,-0.4495,0,-0.5226,-0.5211,-0.5114,-0.5097,-0.5077,-0.5005,-0.4987,-0.4943,-0.4889,-0.4862,-0.4798,-0.4773,-0.4691,-0.4657,-0.4606,-0.4577,-0.4566,-0.4537,-0.4523,-0.4541,-0.4545,-0.4523,-0.4518,-0.4496,-0.4496,-0.4495,-0.4495,0,-0.5311,-0.5246,-0.5212,-0.5129,-0.5108,-0.5097,-0.5025,-0.5006,-0.4956,-0.4922,-0.491,-0.4832,-0.4788,-0.4721,-0.4658,-0.4624,-0.4602,-0.4582,-0.4623,-0.4614,-0.4627,-0.4626,-0.4684,-0.4688,-0.4606,-0.4607,-0.4608,0,-0.5347,-0.5333,-0.5248,-0.5225,-0.5189,-0.5153,-0.5123,-0.5052,-0.5024,-0.4954,-0.4943,-0.4895,-0.4852,-0.4785,-0.4722,-0.4673,-0.4649,-0.4673,-0.4641,-0.4659,-0.4646,-0.4647,-0.4644,-0.468,-0.4681,-0.4682,-0.4683,0,-0.5415,-0.5383,-0.5343,-0.5291,-0.5257,-0.5213,-0.5166,-0.5151,-0.5069,-0.504,-0.4994,-0.4961,-0.4896,-0.4848,-0.479,-0.475,-0.4702,-0.4694,-0.4693,-0.471,-0.4733,-0.4719,-0.464,-0.4692,-0.4691,-0.469,-0.469,-0.469,-0.5474,-0.5458,-0.5396,-0.5352,-0.5309,-0.5266,-0.5244,-0.5191,-0.5152,-0.5093,-0.5054,-0.501,-0.495,-0.4867,-0.483,-0.4794,-0.4773,-0.4773,-0.4772,-0.4773,-0.4779,-0.4741,-0.4783,-0.4783,-0.4783,-0.4782,-0.4782,0,-0.5537,-0.5494,-0.5455,-0.539,-0.5356,-0.5315,-0.526,-0.5234,-0.5197,-0.5145,-0.5104,-0.5051,-0.5004,-0.4938,-0.4886,-0.487,-0.4847,-0.4859,-0.4858,-0.4849,-0.4801,-0.4806,-0.4878,-0.4878,-0.4878,-0.4878,-0.4878,-0.4878,-0.5566,-0.5536,-0.5497,-0.5444,-0.54,-0.5357,-0.5329,-0.5289,-0.5246,-0.519,-0.5151,-0.5108,-0.505,-0.4993,-0.4948,-0.493,-0.4913,-0.4931,-0.4906,-0.4862,-0.4853,-0.4844,-0.4848,-0.4928,-0.4928,-0.4956,-0.4956,-0.4957]},{"header":{"parameterUnit":"m.s-1","parameterCategory":1,"la1":30.2991,"la2":30.254,"lo1":-89.0895,"lo2":-89.0444,"dy":0.0017,"dx":0.0017,"nx":28,"ny":28,"refTime":"2025-05-26T09:00:00:Z","depth":0,"parameterNumber":3,"parameterNumberName":"V-component_of_WINDS"},"data":[0,0,0,0,0,0,0,0,0,0,0,0,0,0,0,0,0,0,0,0,0,0,0,0,0,0,0,0,0,0,0,0,0,0,0,0,0,0,0,0,0,0,0,0,0,0,0,0,0,0,0,0,0,0,0,0,0,0,3.1562,3.1562,0,3.1602,3.1603,3.1603,3.1602,3.1602,3.1601,3.1601,3.1638,3.1639,3.1641,0,0,0,0,0,0,0,0,0,0,0,0,0,3.1476,3.1478,3.1562,3.1562,3.1563,3.1602,3.1603,3.1603,3.1602,3.1602,3.1601,3.1601,3.1637,3.1639,3.1641,0,0,0,0,0,0,0,0,0,0,0,0,0,3.1515,3.1478,3.1561,3.1567,3.1568,3.1602,3.1603,3.1603,3.1603,3.1602,3.1601,3.16,3.1637,3.1639,3.1641,3.1671,0,0,3.1648,3.1649,0,0,0,0,0,0,0,0,3.1512,3.1518,3.1566,3.1567,3.1568,3.1597,3.1586,3.1626,3.1603,3.1589,3.1601,3.16,3.1624,3.1628,3.1637,3.1673,3.1674,3.1648,3.165,3.1651,3.1651,0,0,0,0,0,0,0,3.151,3.1516,3.1578,3.1566,3.1568,3.1565,3.157,3.1594,3.1611,3.159,3.159,3.1596,3.1625,3.1635,3.1638,3.1675,3.1648,3.165,3.1652,3.1652,3.1733,3.1734,0,0,0,0,0,0,3.1507,3.1514,3.1576,3.1579,3.1538,3.1567,3.1573,3.1588,3.1611,3.1613,3.1596,3.1595,3.1631,3.1635,3.1639,3.1673,3.1651,3.1653,3.1654,3.1733,3.1734,3.1734,0,0,0,0,0,0,3.1505,3.1512,3.1575,3.1546,3.1554,3.157,3.1587,3.1589,3.1599,3.1615,3.1617,3.1604,3.1631,3.1636,3.1663,3.1675,3.1654,3.1656,3.1732,3.1733,3.1734,3.1743,0,0,0,0,0,0,3.1503,3.1512,3.1525,3.1547,3.1556,3.16,3.1588,3.1591,3.1604,3.1603,3.1623,3.1625,3.1631,3.1659,3.1665,3.1677,3.1657,3.1731,3.1732,3.1734,3.1742,3.1745,3.1747,0,0,0,0,0,3.15,3.1526,3.1526,3.1533,3.1573,3.16,3.1605,3.1612,3.1605,3.1617,3.1626,3.1624,3.1673,3.1662,3.1668,3.1682,3.173,3.1732,3.1733,3.1741,3.1744,3.1747,0,0,0,0,0,0,3.1505,3.1529,3.1529,3.1564,3.158,3.16,3.1616,3.1616,3.1634,3.1632,3.1639,3.1643,3.1669,3.1678,3.1666,3.171,3.17,3.1703,3.1703,3.1706,3.1709,3.1706,3.1659,0,0,0,0,0,3.151,3.1532,3.1551,3.158,3.1588,3.16,3.1613,3.1617,3.1633,3.164,3.1651,3.1666,3.1684,3.1696,3.1714,3.1743,3.1746,3.1755,3.1757,3.1759,3.1762,3.1775,3.1779,3.174,3.174,3.174,0,0,3.1521,3.1537,3.155,3.1581,3.1594,3.1614,3.1606,3.1629,3.1643,3.1643,3.1668,3.1677,3.1694,3.1721,3.1734,3.1729,3.1773,3.1762,3.1763,3.1764,3.1777,3.1781,3.1784,3.1742,3.1741,3.1741,0,0,3.1551,3.1566,3.159,3.1603,3.1623,3.1631,3.1636,3.1656,3.1662,3.1688,3.1687,3.1703,3.1735,3.1746,3.1756,3.1786,3.1784,3.1792,3.1805,3.1818,3.1821,3.1823,3.1832,3.1835,3.1794,3.1794,3.1794,0,3.1561,3.1594,3.1602,3.1624,3.1636,3.1637,3.166,3.1672,3.1696,3.1703,3.1698,3.1736,3.1747,3.1776,3.1783,3.1792,3.1796,3.179,3.182,3.1822,3.1825,3.1834,3.1837,3.1795,3.1795,3.1795,3.1795,0,3.1604,3.1626,3.1643,3.1667,3.1681,3.1703,3.1712,3.1725,3.1727,3.1734,3.1759,3.1772,3.1791,3.1798,3.1801,3.1826,3.1823,3.1819,3.1809,3.1829,3.1837,3.1841,3.1796,3.1796,3.1795,3.1795,0,0,3.164,3.1666,3.1672,3.1682,3.1702,3.1718,3.1739,3.1759,3.1768,3.1784,3.18,3.1825,3.1821,3.1832,3.1835,3.1846,3.1867,3.184,3.1841,3.1843,3.1893,3.1896,3.19,3.1866,3.1866,3.1867,3.1891,0,3.167,3.1709,3.1716,3.1748,3.1767,3.1767,3.1784,3.1797,3.1804,3.1819,3.1826,3.1843,3.1837,3.1843,3.1855,3.1862,3.1877,3.186,3.1878,3.1879,3.1874,3.1904,3.1907,3.193,3.1895,3.1895,3.1896,0,3.1712,3.1729,3.1764,3.1779,3.1787,3.1803,3.182,3.1835,3.1849,3.1853,3.1864,3.1865,3.1883,3.1873,3.1897,3.1886,3.1893,3.1898,3.1899,3.19,3.1888,3.1905,3.1937,3.194,3.1901,3.1901,3.19,0,3.1732,3.1763,3.1787,3.1796,3.1815,3.1825,3.1834,3.1847,3.1857,3.1871,3.1877,3.1893,3.1902,3.1913,3.1917,3.1909,3.194,3.1931,3.1942,3.1942,3.1949,3.1948,3.1982,3.1955,3.1955,3.1955,3.1955,0,3.1764,3.1785,3.1796,3.1811,3.1833,3.1839,3.186,3.1867,3.1878,3.1893,3.1893,3.1906,3.1912,3.1925,3.1928,3.1947,3.1951,3.1953,3.1953,3.1952,3.1952,3.1957,3.1955,3.1956,3.1955,3.1955,3.1955,0,3.179,3.1799,3.1825,3.184,3.1845,3.186,3.1872,3.1885,3.1891,3.1909,3.1913,3.1922,3.1938,3.1943,3.1962,3.1964,3.1985,3.1984,3.198,3.198,3.1991,3.199,3.2029,3.2033,3.2004,3.2004,3.2005,0,3.181,3.1826,3.1843,3.1853,3.1862,3.1878,3.1889,3.1894,3.1904,3.192,3.193,3.1946,3.1958,3.1982,3.1989,3.2003,3.2002,3.2015,3.2004,3.2002,3.2001,3.2,3.2,3.2017,3.2017,3.2017,3.2017,0,3.1844,3.1847,3.1863,3.1879,3.1891,3.1904,3.1917,3.1925,3.1931,3.1943,3.1959,3.1969,3.1987,3.2002,3.2015,3.2021,3.202,3.2021,3.2024,3.2023,3.2019,3.202,3.1985,3.202,3.2019,3.2019,3.2019,3.2019,3.1867,3.188,3.1893,3.191,3.1919,3.1931,3.1943,3.195,3.1964,3.198,3.1982,3.1998,3.2009,3.2027,3.2034,3.2046,3.2042,3.2047,3.2048,3.2049,3.2049,3.2018,3.2048,3.2048,3.2048,3.2048,3.2048,0,3.1899,3.1907,3.1922,3.194,3.1952,3.195,3.1963,3.1973,3.1988,3.1999,3.2011,3.2028,3.2041,3.2049,3.2062,3.207,3.2069,3.2073,3.2072,3.2073,3.2052,3.2048,3.2073,3.2073,3.2073,3.2073,3.2073,3.2073,3.1917,3.1939,3.1942,3.1967,3.1975,3.1992,3.1999,3.2009,3.2017,3.2036,3.2048,3.2053,3.2061,3.2075,3.2086,3.2088,3.2092,3.2096,3.2097,3.2077,3.2075,3.2072,3.2068,3.2097,3.2097,3.2117,3.2117,3.2117]}]]